Theta_e
304 307 307 308 311 318 321 322 323 317 321 320 320 319 319 319 320 321 322 324 326 328 329 327 325 322 319
299 301 302 307 308 310 315 318 319 317 317 318 317 317 317 318 317 318 318 320 321 324 325 325 323 321 319
294 298 301 304 304 307 307 309 312 310 315 316 317 317 316 316 316 315 314 315 316 318 320 320 320 319 318
292 293 295 298 300 301 300 304 305 307 309 311 313 314 315 316 315 313 311 313 315 317 317 315 314 315 316
289 289 290 292 292 294 294 296 299 303 303 305 308 310 311 312 311 310 311 312 314 315 315 313 312 312 312
286 286 287 288 290 290 291 290 291 301 299 300 305 306 308 311 311 310 310 311 312 313 312 311 309 309 308
284 284 284 286 287 287 287 288 289 294 295 294 300 302 306 307 308 309 310 310 310 309 308 307 306 305 304
285 285 286 288 288 287 287 287 289 290 294 292 298 298 300 303 306 307 307 307 307 306 306 305 303 303 302
291 291 290 290 290 287 285 284 284 286 289 291 293 292 293 296 300 306 306 306 306 305 305 303 302 302 300
284 284 286 286 289 286 286 284 284 283 287 288 289 289 290 291 293 301 304 305 305 304 304 303 301 297 294
281 281 282 283 284 285 285 284 283 283 287 288 287 288 287 289 288 292 299 301 302 302 303 302 300 296 292
280 280 280 280 281 281 282 282 283 283 286 287 285 287 287 288 288 288 293 299 300 298 298 301 301 298 296
279 279 280 281 281 279 281 282 283 285 287 287 287 287 288 287 288 287 289 291 297 297 296 296 296 294 292
279 280 280 276 278 278 279 281 282 282 284 287 287 287 286 287 289 290 290 289 294 295 295 295 295 294 293
279 279 280 280 280 279 279 279 280 281 282 284 287 288 288 287 287 290 292 292 292 293 292 291 292 293 292
277 276 277 278 277 278 279 277 277 279 281 283 285 285 285 286 290 288 291 291 291 292 291 290 288 290 291
271 272 275 276 277 276 276 277 278 279 280 283 284 283 281 280 286 291 288 290 289 289 290 290 288 287 289
Wind_Speed
6 9 9 12 12 10 8 9 9 16 20 21 19 17 14 12 14 13 15 16 16 18 19 25 26 24 22
6 6 10 9 9 12 9 7 7 9 16 16 15 14 11 14 12 12 14 15 14 19 23 27 25 24 23
7 7 7 8 10 6 7 7 5 11 8 13 13 12 11 11 14 12 14 15 16 19 24 26 26 25 24
6 6 6 8 6 8 9 6 8 6 7 8 7 10 13 16 16 17 19 19 20 23 27 26 25 24 23
5 4 6 7 9 7 8 9 10 4 5 4 4 5 7 13 17 18 21 22 23 27 28 28 25 23 23
3 5 6 7 7 8 7 8 6 2 8 9 3 6 7 7 12 15 18 23 25 28 26 25 23 22 19
5 5 8 8 7 8 9 8 9 9 10 11 5 9 6 7 13 16 19 18 21 23 24 22 21 20 19
5 6 5 8 7 7 10 11 9 8 8 10 5 7 5 6 10 10 11 16 19 20 22 22 22 21 20
13 14 16 17 14 7 7 8 9 8 4 7 4 4 3 4 4 12 14 17 20 22 23 23 22 20 15
5 9 9 8 14 5 6 7 7 6 3 5 3 4 4 2 3 5 8 18 21 22 24 23 23 10 7
5 4 6 5 5 4 5 4 8 8 7 8 4 7 3 4 3 3 4 6 8 11 22 24 25 18 9
3 5 6 6 6 5 6 7 7 11 10 12 8 7 8 9 6 3 5 6 8 9 9 17 25 22 18
4 5 5 6 6 4 7 9 9 9 9 11 11 12 10 10 10 4 3 4 7 8 10 11 11 10 9
4 4 4 3 4 3 6 8 9 10 7 10 11 12 12 12 10 10 7 6 6 8 9 10 10 10 10
3 5 6 7 6 4 6 7 10 9 10 7 8 12 12 14 12 11 11 9 6 8 8 8 8 11 11
3 3 6 7 7 7 6 7 10 10 10 10 9 8 8 10 19 11 10 11 7 9 9 10 9 8 9
3 4 5 6 10 7 7 8 10 10 9 11 9 9 11 12 5 21 11 8 7 8 10 10 9 10 11
Wind_Direction
326 317 320 338 333 310 264 240 233 224 228 228 228 228 231 231 245 224 217 223 215 210 195 193 192 196 196
314 337 320 309 328 322 325 281 258 227 225 232 228 231 233 230 226 229 235 222 212 210 199 193 194 191 194
318 328 319 328 323 319 330 319 341 327 288 254 238 244 243 242 242 236 233 228 224 210 201 195 188 187 192
311 313 319 340 315 334 340 350 324 324 291 277 294 265 248 243 242 236 231 230 230 213 195 187 184 183 187
316 315 332 347 348 333 332 333 333 290 319 297 294 275 261 257 254 244 238 234 220 204 190 182 177 179 179
323 338 330 331 336 329 325 330 324 22 343 319 293 279 272 259 257 248 240 229 219 202 182 173 168 172 173
305 311 310 314 312 315 311 307 297 303 313 298 300 280 271 263 260 251 241 216 194 178 165 159 165 169 169
274 276 267 290 294 298 298 292 284 284 283 282 277 272 271 257 265 231 203 179 170 162 163 167 168 175 173
303 303 306 309 308 311 306 303 303 301 276 286 289 293 277 276 247 229 201 188 178 174 172 173 173 172 181
296 307 310 291 305 283 284 297 300 299 282 344 314 313 283 220 274 226 212 205 189 182 179 177 170 166 172
285 298 297 292 284 277 266 276 298 283 291 310 307 309 248 313 314 279 234 201 196 193 187 181 178 173 169
283 285 284 284 274 270 271 275 263 263 280 276 273 270 283 296 283 304 240 211 194 188 187 191 189 185 180
244 250 251 256 268 269 283 271 265 251 261 264 261 269 261 260 269 246 228 234 202 189 187 182 183 179 174
246 255 267 268 260 246 281 292 288 283 248 251 249 251 261 254 251 256 234 209 196 194 188 190 185 183 183
264 278 287 293 281 272 275 283 281 277 291 278 257 251 247 248 251 247 241 228 202 196 178 188 194 185 182
241 242 282 285 284 284 265 282 282 284 281 283 275 266 249 240 231 249 244 227 198 191 193 193 189 186 181
233 237 268 270 289 281 278 276 280 279 276 282 265 254 255 258 250 211 227 213 187 193 190 195 188 188 177